{"data":{"norad_id":68554,"epoch":"2026-05-25T04:00:03.998880Z","epoch_age_seconds":63664,"freshness":"FRESH","line1":"1 68554U 26070N   26145.16671295  .00007049  00000+0  21963-3 0  9991","line2":"2 68554  53.1589   6.8339 0000654  87.1059 182.3967 15.34387829  6018","mean_motion":15.34387829,"eccentricity":6.54e-5,"inclination_deg":53.1589,"raan_deg":6.8339,"arg_perigee_deg":87.1059,"mean_anomaly_deg":182.3967,"bstar":0.00021963,"rev_number":601,"period_min":93.84850249617,"perigee_km":462.29202190559,"apogee_km":463.1868085407,"semimajor_km":6840.8764152231,"source":"CELESTRAK","updated_at":"2026-05-25T13:38:21.962074Z"}}